Regional Weather Roundup
Issued by NWS

Home | Current Version | Previous Version | Text Only | Print | Product List | Glossary Off
Versions: 1 2 3 4 5 6 7 8 9 10 11 12 13 14 15 16 17 18 19 20 21 22 23 24 25 26 27 28 29 30 31 32 33 34 35 36 37 38 39 40 41 42 43 44 45 46 47 48 49 50

000
ASUS43 KOAX 260210
RWRNE

WEATHER ROUNDUP FOR NEBRASKA
NATIONAL WEATHER SERVICE OMAHA NE
800 PM CST THU DEC 25 2014

NOTES: SATELLITE DATA IS BEING USED TO AUGMENT CLOUD COVER ABOVE
       12000 FEET.
       "FAIR" INDICATES FEW OR NO CLOUDS BELOW 12,000 FEET WITH NO
       SIGNIFICANT WEATHER AND/OR OBSTRUCTIONS TO VISIBILITY.

  * THESE STATIONS DO NOT REPORT WEATHER SUCH AS RAIN...SNOW OR FOG.

NEZ001>004-019>022-054>056-260300-
NEBRASKA PANHANDLE

CITY           SKY/WX    TMP DP  RH WIND       PRES   REMARKS
SCOTTSBLUFF    LGT SNOW  24  21  88 N12       29.85R FOG     WCI  13
ALLIANCE       LGT SNOW  23  20  88 N18       29.82R FOG     WCI   9
CHADRON        LGT SNOW  24  21  88 N14       29.90R FOG     WCI  12
KIMBALL        CLOUDY    23  22  95 N20       29.73S WCI   9
SIDNEY         LGT SNOW  24  22  91 N18       29.76R FOG     WCI  10
$$

NEZ057>060-069>072-079>082-260300-
SOUTHWEST NEBRASKA

CITY           SKY/WX    TMP DP  RH WIND       PRES   REMARKS
NORTH PLATTE   CLOUDY    29  26  89 N22G30    29.73R WCI  15
IMPERIAL       CLOUDY    30  25  81 N24G30    29.72R WCI  16
LEXINGTON      CLOUDY    32  28  86 N21G29    29.70R WCI  20
MCCOOK         CLEAR     30  26  85 N21       29.68R WCI  17
OGALLALA       CLOUDY    29  26  90 NE21G31   29.77R WCI  15
$$

NEZ005>010-023>029-035>040-094-260300-
NORTH CENTRAL NEBRASKA

CITY           SKY/WX    TMP DP  RH WIND       PRES   REMARKS
VALENTINE      LGT SNOW  26  22  84 N17       29.85R VSB 1   WCI  13
AINSWORTH      MIX PCPN  26  24  95 N22G29    29.81R WCI  11
BROKEN BOW     CLOUDY    31  28  89 N18       29.73R WCI  19
O`NEILL        CLOUDY    30  30  99 N20       29.78R WCI  17
ORD            CLOUDY    32  28  85 N15G22    29.73R WCI  22
THEDFORD       CLOUDY    28  26  91 N16G26    29.79R WCI  16
$$

NEZ041-046>049-061>064-073>077-083>087-260300-
SOUTH CENTRAL NEBRASKA

CITY           SKY/WX    TMP DP  RH WIND       PRES   REMARKS
GRAND ISLAND   CLEAR     31  27  85 N15       29.69R WCI  20
AURORA         CLEAR     34  28  81 N14       29.67R WCI  24
HASTINGS       CLEAR     33  25  72 N16       29.65R WCI  23
HEBRON         PTCLDY    36  28  72 CALM      29.64R
HOLDREGE       CLEAR     31  27  86 N16G22    29.68R WCI  20
KEARNEY *      CLEAR     30  25  80 NW20      29.68R WCI  18
YORK           CLEAR     32  28  86 N7        29.67R WCI  26
$$

NEZ011>018-030>034-042>045-260300-
NORTHEAST NEBRASKA

CITY           SKY/WX    TMP DP  RH WIND       PRES   REMARKS
NORFOLK        CLOUDY    35  30  82 N8        29.71R WCI  29
ALBION         CLOUDY    33  29  83 N12       29.71R WCI  25
BLAIR          MOCLDY    43  32  65 E6        29.67R
COLUMBUS *     CLEAR     34  27  75 N10       29.70R WCI  26
FREMONT        PTCLDY    32  30  93 CALM      29.68R
TEKAMAH        CLEAR     34  31  88 N8        29.68S WCI  27
WAYNE          MOCLDY    33  31  94 N8        29.73R WCI  25
$$

NEZ050>053-065>068-078-088>093-260300-
SOUTHEAST NEBRASKA

CITY           SKY/WX    TMP DP  RH WIND       PRES   REMARKS
LINCOLN        PTCLDY    30  26  85 CALM      29.68R
OMAHA EPPLEY   MOCLDY    37  32  82 CALM      29.69R
BEATRICE       MOCLDY    41  30  66 S7        29.65R
FALLS CITY     MOCLDY    39  31  72 SE8       29.70R WCI  33
NEBRASKA CITY  CLOUDY    40  29  65 S9        29.68R WCI  34
PLATTSMOUTH    CLOUDY    39  31  72 SE8       29.68R WCI  34
$$

NEZ044-045-051>053-067-260300-
OMAHA AREA

CITY           SKY/WX    TMP DP  RH WIND       PRES   REMARKS
OMAHA EPPLEY   MOCLDY    37  32  82 CALM      29.69R
BLAIR          MOCLDY    43  32  65 E6        29.67R
FREMONT        PTCLDY    32  30  93 CALM      29.68R
MILLARD        MOCLDY    34  31  88 CALM      29.68R
OFFUTT AFB     MOCLDY    31  29  93 SE2       29.68R
PLATTSMOUTH    CLOUDY    39  31  72 SE8       29.68R WCI  34
WAHOO          FAIR      35  30  83 CALM      29.67R
$$


USA.gov is the U.S. government's official web portal to all federal, state and local government web resources and services.